sat.trackr.live / text

‹ back to catalog

STARLINK-32899

NORAD 62994 · 2025-031P

PAYLOAD ACTIVE UNKNOWN

§ Identity

Operator
Country
US
Launch date
2025-02-11
Launch site
AFETR
Launch vehicle
Mass (kg)
RCS (m²)

Purposes: comms

External: N2YO · Heavens-Above · Gunter

§ Orbital elements

Epoch: 2026-05-25T03:29:03.520032Z

Period
94.27 min
Inclination
42.9984°
Eccentricity
0.0001307
Mean motion
15.27601236 rev/d
Perigee alt
482.1 km
Apogee alt
483.9 km
Semi-major
6,861.1 km
B*
6.6637e-4
RAAN
71.9408°
Arg perigee
264.7102°
Mean anomaly
95.3601°
Rev number
7,278

§ Raw data

STARLINK-328991 62994U 25031P   26145.14517963  .00018132  00000+0  66637-3 0  99902 62994  42.9984  71.9408 0001307 264.7102  95.3601 15.27601236 72781

JSON: /api/v1/satellites/62994 · /tle

For live sub-satellite position, see the globe view (requires WebGL).

§ Visibility from observer

Set your observer location to see the next 7 days of passes ≥ 10°. The values pass through the URL so the page stays shareable.

No JS? Fill the form by hand. The geolocation button needs JavaScript.